Regional Weather Roundup
Issued by NWS Upton, NY

Current Version | Previous Version | Graphics & Text | Print | Product List | Glossary Off
Versions: 1 2 3 4 5 6 7 8 9 10 11 12 13 14 15 16 17 18 19 20 21 22 23 24 25 26

000
ASUS41 KOKX 111308
RWROKX

REGIONAL WEATHER ROUNDUP
NATIONAL WEATHER SERVICE NEW YORK NY
800 AM EST MON DEC 11 2017

NOTE: "FAIR" INDICATES FEW OR NO CLOUDS BELOW 12,000 FEET WITH NO
SIGNIFICANT WEATHER AND/OR OBSTRUCTIONS TO VISIBILITY.

NYZ071-072-176-178-NJZ106-104-111400-
NEW YORK CITY METRO AREA

CITY           SKY/WX    TMP DP  RH WIND       PRES   REMARKS
Central Park   CLOUDY    33  25  72 W10G22    30.04R WCI  25
Bronx Bot Gard   N/A     34  25  69 W7        30.04R WCI  28
Bronx Lehman C   N/A     34  27  75 W5          N/A  WCI  30
LaGuardia APRT MOCLDY    35  25  66 SW12      30.02R WCI  27
Queens College   N/A     32  28  86 SW9         N/A  WCI  24
Kennedy INTL   MOCLDY    34  29  82 SW13      30.04S WCI  25
Breezy Point     N/A     34 N/A N/A SW8G15      N/A  WCI  27
Brooklyn Coll    N/A     34  30  86 SW3         N/A
Staten Island    N/A     32  30  93 SW3         N/A
Newark/Liberty PTCLDY    32  27  81 W9        30.04R WCI  24
Teterboro      PTCLDY    33  25  72 SW7       30.02R WCI  27
$$

NYZ177-179-078>081-111400-
LONG ISLAND NEW YORK

CITY           SKY/WX    TMP DP  RH WIND       PRES   REMARKS
Jones Beach      N/A     36 N/A N/A W14G20      N/A  WCI  27
Wantagh          N/A     34  28  80 W8          N/A  WCI  27
Matinecock PT    N/A     36 N/A N/A W21         N/A  WCI  24
Farmingdale    PTCLDY    32  27  81 SW7       30.03R WCI  26
MacArthur/ISP  MOCLDY    32  29  88 SW7       30.02S WCI  26
Shirley        CLEAR     32  30  92 W7        30.03R WCI  26
Mt Sinai Harb    N/A    N/A N/A N/A SW6         N/A
Westhampton    PTCLDY    32  25  75 W9        30.03R WCI  24
East Hampton   MOCLDY    33  23  66 W7        30.01R WCI  27
Southold         N/A     34  27  75 SW8         N/A  WCI  27
Montauk          N/A     38  25  59 W8        30.01S WCI  32
$$

NYZ052-065-067-111400-
HUDSON VALLEY

CITY           SKY/WX    TMP DP  RH WIND       PRES   REMARKS
White Plains   PTCLDY    31  22  69 W5        29.99R WCI  26
Larchmont Harb   N/A     34 N/A N/A SW13        N/A  WCI  25
Croton On Huds   N/A     34 N/A N/A W10         N/A  WCI  26
Somers           N/A     30  21  69 SW3         N/A
Brewster         N/A     32  23  69 S2          N/A
Newburgh       CLEAR     28  23  80 W14       29.99R WCI  17
Montgomery     CLEAR     27  21  78 S5        29.98R WCI  22
Otisville        N/A     28  23  80 W3          N/A
Warwick          N/A     30  23  74 W5          N/A  WCI  25
Suffern          N/A     30  23  74 SW1         N/A
Poughkeepsie   PTCLDY    32  21  64 SW3       30.00R
Albany         MOCLDY    27  21  78 CALM      29.96R
$$

NJZ001-105-106-008-010-013-015-019>022-104-111400-
NEW JERSEY

CITY           SKY/WX    TMP DP  RH WIND       PRES   REMARKS
Newark/Liberty PTCLDY    32  27  81 W9        30.04R WCI  24
Teterboro      PTCLDY    33  25  72 SW7       30.02R WCI  27
Caldwell       PTCLDY    31  24  75 SW3       30.03R
Somerville     PTCLDY    27  25  92 CALM      30.02R
Linden         FAIR      32  28  83 CALM      30.04R
Perth Amboy      N/A    N/A N/A N/A SW8         N/A
Sussex         CLEAR     27  24  89 S3        30.00R
Andover        NOT AVBL
Trenton        CLOUDY    32  29  88 CALM      30.03R
Millville      CLOUDY    32  31  96 CALM      30.06R
Atlantic City  MOCLDY    35  30  82 CALM      30.06R
Wrightstown    CLOUDY    30  29  94 S6        30.02R WCI  24
Toms River     PTCLDY    31  30  96 SW5       30.06R WCI  26
Belmar         MOCLDY    30  29  96 SW5       30.05R WCI  25
$$

PAZ047>061-062-071-111400-
EASTERN PENNSYLVANIA

CITY           SKY/WX    TMP DP  RH WIND       PRES   REMARKS
Philadelphia   CLOUDY    35  29  78 SW8       30.06R WCI  29
Allentown      PTCLDY    29  20  69 SW3       30.02R
Scranton       CLEAR     29  20  69 CALM      29.98R
$$

CTZ002-004>006-009-010-012-RIZ004-006-007-MAZ004-011-015-111400-
SOUTHERN NEW ENGLAND
 IN CT

CITY           SKY/WX    TMP DP  RH WIND       PRES   REMARKS
Bradley INTL   CLOUDY    31  23  72 S7        29.96F WCI  24
Hartford       CLOUDY    33  23  66 SW6       29.98S WCI  28
Danbury        CLOUDY    31  21  66 SW7       29.99S WCI  24
Wtrbury/Oxford MOCLDY    29  23  78 S5        29.96S WCI  24
Norwalk Harbor   N/A     34 N/A N/A SW16        N/A  WCI  23
Bridgeport     MOCLDY    35  24  64 W13G20    30.00S WCI  26
Meriden        CLOUDY    31  22  69 S7        29.99R WCI  24
New Haven      MOCLDY    35  24  64 W9        29.99F WCI  28
Chester        CLOUDY    32  23  69 W5        29.98R WCI  27
Groton         CLOUDY    34  25  69 W9        30.00R WCI  27
Wilimantic     CLOUDY    32  24  72 CALM      29.99R

 IN RI

CITY           SKY/WX    TMP DP  RH WIND       PRES   REMARKS
Providence     CLOUDY    33  25  72 W13       30.00R WCI  24
Block Island     N/A    N/A N/A N/A MISG        N/A
Westerly       CLOUDY    35  24  64 W5        30.00R WCI  31
 IN MA

CITY           SKY/WX    TMP DP  RH WIND       PRES   REMARKS
Boston         CLOUDY    33  23  66 SW14G23   29.97R WCI  23
Worcester      CLOUDY    27  20  75 SW12      29.91S WCI  17
Westfield      CLOUDY    31  22  69 W3        29.95S
Provincetown   PTCLDY    36  25  64 W17         N/A  WCI  26
Nantucket      CLOUDY    40  29  64 W14       29.99R WCI  32
$$

ANZ330-335-338-340-345-350-353-355-111400-
COASTAL MARINE OBSERVATIONS


STATION/POSITION TIME  SKY/WX   TEMP    WIND        PRES    VSBY  WAVE
                                AIR SEA DIR/SP/G                  HT/PER
                 (UTC)          (F)     (DEG/KT/KT) (MB)    (MI)  (FT/S)
NY HARB ENTRANCE 1150            37 51  250/ 12/ 14 1016.7          3/10
20 S FIRE ISLAND 1150            37 53  280/ 19/ 25 1017.0          5/ 5
GREAT SOUTH BAY  1230            35 45  270/ 12/ 16   N/A
HUDSON CANYON    1150            44 56  300/ 19/ 23 1016.0          5/ 5
KINGS POINT      1224            35 45  270/  9/ 12 1017.1
EXECUTION ROCKS  1230            37     230/ 14/ 17   N/A
WESTERN LI SOUND 1149            37     260/ 16/ 21   N/A           1/ 3
CENTRAL LI SOUND 1215            36     230/ 17/ 23   N/A           4
ROBBINS REEF     1224            33     220/  6/  9 1017.4
$$


>>>>>>>>>>>>>>>>>>>>>>>>>>>> KEY <<<<<<<<<<<<<<<<<<<<<<<<<<<
>                                                          <
>     SKY/WX - Sky Condition/Present Weather               <
>     TMP    - Temperature in Fahrenheit                   <
>     DP     - Dew Point in Fahrenheit                     <
>     RH     - Relative Humidity in Percent                <
>     WIND   - Direction (from) and Speed in MPH           <
>     PRES   - Mean Sea Level Pressure (inches of Hg)      <
>     WCI    - Wind Chill Index                            <
>     VSB    - VISIBILITY IN MILES                         <
>     HX     - HEAT INDEX                                  <
>     TC     - TEMPERATURE IN CELSIUS                      <
>     VRB    - VARIABLE WIND DIRECTION                     <
>                                                          <
>>>>>>>>>>>>>>>>>>>>>>>>>>>> KEY <<<<<<<<<<<<<<<<<<<<<<<<<<<




USA.gov is the U.S. government's official web portal to all federal, state and local government web resources and services.